RASSVET-3 10

导读 | 豆包AI

RASSVET-3 10(NORAD编号68369)是俄罗斯Buro 1440公司主导研发的“黎明-3”低轨互联网卫星星座中的一颗,属于俄罗斯版“星链”计划首批16颗量产卫星之一,于2026年3月23日由联盟-2火箭从普列谢茨克发射场发射入轨。卫星单颗质量约370公斤,进入初始轨道参数为近地点290公里、远地点324公里,轨道倾角82.3度,搭载5G NTN非地面网络通信系统、星间激光通信终端等设备,后续将完成测试并转移至目标轨道,为构建俄罗斯自主可控的低轨卫星互联网提供服务。

基本信息
目录编号:
68369
目录名称:
RASSVET-3 10
国际标识:
2026-061K
轨道中心:
EARTH
卫星名称:
RASSVET-3 10
卫星全名:
RASSVET-3 10
卫星状态:
在轨 (已飞行38 天)
发射日期:
2026-03-23 UTC
国别 :
俄罗斯(独联体) (CIS)
星等 :
--
轨道信息
数据来源 国际轨道数据
星历时间: 2026-04-30T04:17:34+0800
11小时前
查看轨道信息
半长轴: 6676.311km
偏心率: 0.0018431
轨道倾角: 82.296°
近地点辐角 281.352°
升交点赤经 66.586°
平近点角 78.569°
近地点: 285.868km
远地点: 310.48km
周期: 90.482分钟
每日圈数: 15.914684
详细信息
使用方式:
暂无
2D轨道图
3D轨道图
轨道高度分析图
轨道倾角分析图
轨道综合分析图
查看轨道综合分析图